Regional Weather Roundup
Issued by NWS

Home | Current Version | Previous Version | Graphics & Text | Print | Product List | Glossary On
Versions: 1 2 3 4 5 6 7 8 9 10 11 12 13 14 15 16 17 18 19 20 21 22 23 24 25 26 27 28 29 30 31 32 33 34 35 36 37 38 39 40 41 42 43 44 45 46 47 48 49 50
000
ASUS43 KIND 011009
RWRIN

WEATHER ROUNDUP FOR INDIANA
NATIONAL WEATHER SERVICE INDIANAPOLIS IN
600 AM EDT MON SEP 01 2014

NOTE: "FAIR" INDICATES FEW OR NO CLOUDS BELOW 12,000 FEET WITH NO
SIGNIFICANT WEATHER AND/OR OBSTRUCTIONS TO VISIBILITY.

* - STATION DOES NOT REPORT WEATHER SUCH AS PRECIPITATION OR FOG.

+ - STATION NOT QUALITY CONTROLLED BY THE NATIONAL WEATHER SERVICE.
    USE DATA WITH CAUTION...ESPECIALLY DEWPOINT AND RELATIVE
    HUMIDITY OBSERVATIONS.

INZ001>003-010>013-019-020-011100-
NORTHWEST INDIANA

CITY           SKY/WX    TMP DP  RH WIND       PRES   REMARKS
GARY /AIRPORT/ PTCLDY    73  70  88 S10       29.84F
KNOX *+        PTCLDY    71  68  92 S8        29.86F
LA PORTE +     CLOUDY    70  70 100 S7        29.88F FOG
MICHIGAN CITY+ MOCLDY    70  70 100 S8        29.86F
MONTICELLO +   PTCLDY    71  70  97 S7        29.89F
RENSSELAER +   CLEAR     70  70 100 S6        29.87F FOG
VALPARAISO     PTCLDY    71  69  93 S6        29.86F

$$

LMZ046-743>745-011100-
SOUTHERN LAKE MICHIGAN

STATION/POSITION TIME  TEMP WIND        PRES
                       AIR  DIR/SP/G
                 (UTC) (F)  (DEG/KT/KT) (MB)
MICHIGAN CITY    1000   72  150/ 14/ 20   N/A

$$

INZ004-005-014>016-021>024-011100-
NORTH CENTRAL INDIANA

CITY           SKY/WX    TMP DP  RH WIND       PRES   REMARKS
GOSHEN         PTCLDY    72  69  90 S8        29.90S
LOGANSPORT +   PTCLDY    70  68  94 S8        29.91F
PERU/GRISSOM   PTCLDY    72  72 100 S12       29.91F
ROCHESTER +    CLEAR     72  72 100 S6        29.90F
SOUTH BEND     PTCLDY    72  69  90 S9        29.88F
WARSAW +       PTCLDY    70  70 100 S3        29.91F FOG

$$

INZ006>009-017-018-025>027-011100-
NORTHEAST INDIANA

CITY           SKY/WX    TMP DP  RH WIND       PRES   REMARKS
ANGOLA *+      MOCLDY    68  59  73 S3        29.92F
AUBURN +       CLEAR     70  68  94 CALM      29.93F
FORT WAYNE     MOCLDY    70  69  97 S9        29.94S
HUNTINGTON +   CLOUDY    70  69  98 S6        29.93S

$$

INZ028-029-035-036-043>045-051>053-011100-
WEST CENTRAL INDIANA

CITY           SKY/WX    TMP DP  RH WIND       PRES   REMARKS
GREENCASTLE +  CLOUDY    72  72 100 S7        29.94S
LAFAYETTE      PTCLDY    71  70  96 S5        29.89F
TERRE HAUTE    MOCLDY    73  71  93 S8        29.92F

$$

INZ030>032-037>040-046>048-054>057-064-065-011100-
CENTRAL INDIANA

CITY           SKY/WX    TMP DP  RH WIND       PRES   REMARKS
CP ATTERBURY + CLOUDY    73  70  88 S9        29.96F
FRANKFORT +    PTCLDY   N/A N/A N/A S5        29.93F HAZE
INDIANAPOLIS   CLOUDY    72  70  93 S9        29.93F
-EAGLE CREEK   CLOUDY    72  70  93 S5        29.93F
KOKOMO *+      MOCLDY    72  68  88 S9        29.92F
MARION +       CLOUDY    70  69  96 S8        29.94F FOG
MT COMFORT *+  CLOUDY    72 N/A N/A S8        29.96S
SHELBYVILLE    MOCLDY    74  71  91 S9        29.96F
ZIONSVILLE +   MOCLDY    72  68  89 S6        29.95S

$$

INZ033-034-041-042-049-050-058-059-011100-
EAST CENTRAL INDIANA

CITY           SKY/WX    TMP DP  RH WIND       PRES   REMARKS
MUNCIE         CLOUDY    72  69  90 S8        29.96F

$$

INZ060-061-067>069-081>083-085>088-011100-
SOUTHWEST INDIANA

CITY           SKY/WX    TMP DP  RH WIND       PRES   REMARKS
EVANSVILLE     PTCLDY    75  72  90 S12       29.96F
WASHINGTON +   MOCLDY    73  73 100 S7        29.94F

$$

INZ062-063-066-070>080-084-089>092-011100-
SOUTH CENTRAL AND SOUTHEAST INDIANA

CITY           SKY/WX    TMP DP  RH WIND       PRES   REMARKS
BEDFORD +      CLOUDY    72  70  94 S3        29.97F
BLOOMINGTON    MOCLDY    73  71  93 S9        29.95F

$$



USA.gov is the U.S. government's official web portal to all federal, state and local government web resources and services.